Regional Weather Roundup
Issued by NWS

Home | Current Version | Previous Version | Text Only | Print | Product List | Glossary On
Versions: 1 2 3 4 5 6 7 8 9 10 11 12 13 14 15 16 17 18 19 20 21 22 23 24 25 26 27
000
ASUS42 KTBW 180616
RWRFL
FLORIDA REGIONAL WEATHER ROUNDUP
NATIONAL WEATHER SERVICE TAMPA BAY RUSKIN FL
100 AM EST MON DEC 18 2017

NOTE: "FAIR" INDICATES FEW OR NO CLOUDS BELOW 12,000 FEET WITH NO
SIGNIFICANT WEATHER AND/OR OBSTRUCTIONS TO VISIBILITY.

FLZ001>010-012>015-112-114-115-180700-
PANHANDLE FLORIDA

CITY           SKY/WX    TMP DP  RH WIND       PRES   REMARKS
PENSACOLA      FOG       67  65  93 S6        30.14S VSB 1/2
PENSACOLA NAS  CLOUDY    68  66  93 S5        30.14S
MILTON NAS     FOG       66  66 100 S5        30.14  VSB 1/4
CRESTVIEW      CLOUDY    69  67  93 S8        30.16S
DUKE FIELD     CLOUDY    69  69 100 S12       30.14F
VALPARAISO     DRIZZLE   69  69 100 SE12      30.15R FOG
MARY ESTHER    LGT RAIN  69  69  99 S9        30.13  FOG
PANAMA CITY    LGT RAIN  68  66  93 SE14      30.14F
TYNDALL AFB    HVY RAIN  68  66  94 CALM      30.19S
APALACHICOLA   CLOUDY    67  67 100 S6        30.19F FOG

STATION/POSITION SKY/WX   TEMP    WIND        PRES    WAVE   SWELL
                          AIR SEA DIR/SP/G            HT/PER HT/PER
                          (F)     (DEG/KT/KT) (MB)    (FT/S) (FT/S)
29.2N   88.2W              72 74   CALM  /  2 1021.3R   4/ 7   3/ 7
28.8N   86.0W              74 73  170/ 12/ 16 1021.5F   4/ 6   2/ 6
PANAMA CITY BEAC           66 63  130/ 18/ 19 1021.2F
TOWER C                    70     190/ 12/ 12 1022.9F

$$
FLZ011-016>038-118-127-128-134-139-239-180700-
NORTH FLORIDA

CITY           SKY/WX    TMP DP  RH WIND       PRES   REMARKS
MARIANNA       RAIN      68  66  93 S8        30.15S
TALLAHASSEE    CLOUDY    65  64  97 SW7       30.18R
PERRY          CLOUDY    63  60  90 S5        30.19S
LIVE OAK       CLEAR     66  64  94 S5        30.19F
CROSS CITY     CLEAR     57 N/A N/A S3        30.24F
LAKE CITY      FAIR      63  61  94 S6        30.19F
GAINESVILLE    CLEAR     56  55  97 CALM      30.24F FOG
WILLISTON      FOG       59  57  94 CALM      30.23R VSB 1/4
PALATKA        MOCLDY    57  57 100 CALM      30.22F
MAYPORT NAS    CLOUDY    63  62  97 S9        30.19F
JACKSONVILLE   CLOUDY    63  61  93 S7        30.18F
JAX NAS        PTCLDY    63  61  93 S12       30.20F
JAX CECIL        N/A     57  57 100 MISG      30.19F
ST AUGUSTINE   CLOUDY    63  61  93 MISG      30.22F
PALM COAST     FAIR      63  61  96 S5        30.22S

STATION/POSITION SKY/WX   TEMP    WIND        PRES    WAVE   SWELL
                          AIR SEA DIR/SP/G            HT/PER HT/PER
                          (F)     (DEG/KT/KT) (MB)    (FT/S) (FT/S)
SHELL POINT      NOT AVBL
KEATON BEACH               63     180/  8/  9 1022.1F
CEDAR KEY                  62     170/  2/  2 1023.5F
FERNANDINA                 63 58  180/  4/  9 1022.7F
30.7N   81.3W                 61                N/A     1/10
MAYPORT                    63 61  200/  6/  8 1022.6F
31.4N   80.9W              62 59  190/  8/ 10 1022.1R   1/10   2/10
ST AUGUSTINE               64 65  230/  7/  8 1023.1F

$$
FLZ040-043>046-052-053-057-058-063-144-180700-
INTERIOR CENTRAL FLORIDA

CITY           SKY/WX    TMP DP  RH WIND       PRES   REMARKS
OCALA          CLEAR     56  55  97 CALM      30.23S
LEESBURG       PTCLDY    62  61  96 CALM      30.23F
SANFORD        CLEAR     65  62  90 S6        30.22F
ORLANDO EXEC   CLEAR     64  63  96 S3        30.22F
ORLANDO INTL   PTCLDY    63  63 100 CALM      30.23F
KISSIMMEE      CLEAR     63  61  93 CALM      30.24S
WINTER HAVEN   CLEAR     65  64  97 S5        30.24F
LAKELAND       CLEAR     61  59  94 CALM      30.23F
BARTOW         FAIR      59  59 100 CALM      30.23F
SEBRING        FAIR      67  64  91 CALM      30.23S
OKEECHOBEE     PTCLDY    63  61  94 CALM      30.23R FOG

$$
FLZ041-047-054-059-064-141-147-180700-
EAST CENTRAL FLORIDA

CITY           SKY/WX    TMP DP  RH WIND       PRES   REMARKS
DAYTONA BEACH  PTCLDY    63  63 100 S3        30.22F
DELAND         CLEAR     61  59  94 CALM      30.22S
JFK SPACE CTR  PTCLDY    59  59 100 CALM      30.22S FOG
CAPE CANAVERAL FOG       63  61  94 CALM      30.21F VSB 1/4
PATRICK AFB    CLEAR     66  66 100 CALM      30.22S
MELBOURNE      CLEAR     67  65  93 S3        30.22F
VERO BEACH     FOG       61  61 100 CALM      30.22S VSB 1/4
FT PIERCE      FOG       60  60 100 CALM      30.22S VSB 1/4
STUART         CLEAR     61  61 100 CALM      30.23S FOG

STATION/POSITION SKY/WX   TEMP    WIND        PRES    WAVE   SWELL
                          AIR SEA DIR/SP/G            HT/PER HT/PER
                          (F)     (DEG/KT/KT) (MB)    (FT/S) (FT/S)
28.5N   80.2W              75 77  180/  8/ 10 1023.4S   2/ 9   2/ 9
TRIDENT PIER               67 68  240/  1/  3 1025.1R
28.4N   80.5W                 68                N/A     2/10
27.5N   80.2W                 71                N/A     2/ 7

$$
FLZ050-056-061-142-242-148-248-149-249-151-251-155-255-
160-260-180700-
WEST CENTRAL FLORIDA

CITY           SKY/WX    TMP DP  RH WIND       PRES   REMARKS
CRYSTAL RIVER  FAIR      55  55 100 CALM      30.23S
INVERNESS      FAIR      55  55 100 CALM      30.23F FOG
BROOKSVILLE    CLEAR     57  56  96 CALM      30.23F
CLEARWATER AIR FAIR      63  61  94 CALM      30.21F
ST PETE CLEARW CLEAR     62  61  96 CALM      30.21F FOG
TAMPA INTL     PTCLDY    69  61  75 E3        30.22F
TAMPA EXEC     CLEAR     57  55  94 CALM      30.23F FOG
PLANT CITY     PTCLDY    66  63  88 S3        30.25S
MACDILL AFB    CLEAR     64  62  93 CALM      30.22S
PETER O KNIGHT   N/A    N/A N/A N/A CALM      30.23S
ST PETERSBURG  PTCLDY    66  64  93 CALM      30.20F
SARASOTA       PTCLDY    64  62  93 CALM      30.21S
VENICE         NOT AVBL

STATION/POSITION SKY/WX   TEMP    WIND        PRES    WAVE   SWELL
                          AIR SEA DIR/SP/G            HT/PER HT/PER
                          (F)     (DEG/KT/KT) (MB)    (FT/S) (FT/S)
27.3N   84.2W                 75                N/A     2/ 5
CLEARWATER BEACH           70 65  120/  3/  5 1023.2F
MIDDLE TAMPA BAY           66     150/  4/  4 1023.4F
VENICE                     67 68   70/  5/  6 1023.3F

$$
FLZ066-069-070-075>078-162-262-165-265-180700-
SOUTHWEST FLORIDA AND KEYS

CITY           SKY/WX    TMP DP  RH WIND       PRES   REMARKS
PUNTA GORDA    FOG       64  63  96 CALM      30.24R VSB 1/4
FT MYERS       PTCLDY    66  66 100 CALM      30.21S
SOUTHWEST INTL CLOUDY    65  65 100 CALM      30.21F
NAPLES         PTCLDY    68  66  93 NE3       30.20F
MARCO ISLAND   CLOUDY    67  65  93 NE5       30.21F
IMMOKALEE      FOG       63  63 100 CALM      30.22F VSB 1/4
MARATHON       PTCLDY    72  69  90 NE7       30.19F
KEY WEST NAS   CLEAR     72  72 100 NE8       30.19S
KEY WEST INTL  CLEAR     73  71  93 E7        30.19S

STATION/POSITION SKY/WX   TEMP    WIND        PRES    WAVE   SWELL
                          AIR SEA DIR/SP/G            HT/PER HT/PER
                          (F)     (DEG/KT/KT) (MB)    (FT/S) (FT/S)
NAPLES                        70   80/  4/  5 1022.7F
DRY TORTUGAS               75     100/ 14/ 15 1021.9F
SAND KEY                   73                 1022.7F
MOLASSES REEF              76 77  120/ 13/ 15 1022.7F

$$
FLZ067-068-071>074-168-172>174-180700-
SOUTHEAST FLORIDA

CITY           SKY/WX    TMP DP  RH WIND       PRES   REMARKS
W PALM BEACH   CLOUDY    68  68 100 CALM      30.21F
FT LAUDER-EXEC CLEAR     67  67 100 CALM      30.21F
FT LAUDERDALE  PTCLDY    74  72  93 SE6       30.20F
POMPANO BEACH  PTCLDY    73  70  90 CALM      30.21S
PEMBROKE PINES PTCLDY    70  68  93 CALM      30.22F
OPA LOCKA      CLEAR     69  68  96 SE3       30.21F
MIAMI          MOCLDY    74  71  91 E6        30.20F
WEST KENDALL   MOCLDY    71  69  93 SE5       30.20F
HOMESTEAD      CLEAR     69  69 100 CALM      30.20F

STATION/POSITION SKY/WX   TEMP    WIND        PRES    WAVE   SWELL
                          AIR SEA DIR/SP/G            HT/PER HT/PER
                          (F)     (DEG/KT/KT) (MB)    (FT/S) (FT/S)
PORT EVERGLADES            76     130/  7/  8 1022.8F
VIRGINIA KEY               76 73  110/  5/  6 1022.6F
LAKE WORTH                 72 76  280/  1/  2 1024.0F
FOWEY ROCKS                76 75  110/ 11/ 13 1023.2F
SETTLEMENT POINT           71      90/  9/ 10 1023.4F

$$





USA.gov is the U.S. government's official web portal to all federal, state and local government web resources and services.